Hourly Data Report for May 12, 2018

TORONTO CITY
ONTARIO
Current Station Operator: ECCC - MSC

43°40'00.000" N
79°24'00.000" W
112.50 m
6158355
71508
XTO

Download Data

Hourly Data (May 2018)
Hourly Data Report for May 12, 2018
TIME
LST
Temp Definition
°C
Dew Point Definition
°C
Rel Hum Definition
%
Precip. Amount Definition
mm

Wind Dir Definition
10's deg

Wind Spd Definition
km/h
Visibility Definition
km
Stn Press Definition
kPa
Hmdx Definition


Wind Chill Definition


Weather Definition


00:00 10.1 -6.2 31 0.0 LegendMM LegendMM   100.70     LegendNANA
01:00 9.1 -3.4 41 0.0 LegendMM LegendMM   100.65     LegendNANA
02:00 8.8 -4.8 38 0.0 LegendMM LegendMM   100.60     LegendNANA
03:00 8.4 -5.4 37 0.0 LegendMM LegendMM   100.56     LegendNANA
04:00 8.3 -4.3 41 0.0 LegendMM LegendMM   100.51     LegendNANA
05:00 8.4 -3.2 44 0.0 LegendMM LegendMM   100.53     LegendNANA
06:00 8.6 -1.6 49 0.0 LegendMM LegendMM   100.59     LegendNANA
07:00 9.4 -2.8 42 0.0 LegendMM LegendMM   100.57     LegendNANA
08:00 8.8 -1.6 48 0.0 LegendMM LegendMM   100.64     LegendNANA
09:00 9.6 -2.4 43 0.0 LegendMM LegendMM   100.63     LegendNANA
10:00 10.7 -4.3 34 0.0 LegendMM LegendMM   100.63     LegendNANA
11:00 11.4 -4.9 32 0.0 LegendMM LegendMM   100.61     LegendNANA
12:00 12.8 -5.1 28 0.0 LegendMM LegendMM   100.60     LegendNANA
13:00 12.7 -4.8 29 0.0 LegendMM LegendMM   100.55     LegendNANA
14:00 11.8 -4.6 32 0.0 LegendMM LegendMM   100.58     LegendNANA
15:00 12.6 -2.5 35 0.0 LegendMM LegendMM   100.57     LegendNANA
16:00 13.0 -4.9 28 0.0 LegendMM LegendMM   100.57     LegendNANA
17:00 12.0 -2.8 35 0.0 LegendMM LegendMM   100.56     LegendNANA
18:00 12.6 -6.0 27 0.0 LegendMM LegendMM   100.55     LegendNANA
19:00 13.4 -7.5 23 0.0 LegendMM LegendMM   100.53     LegendNANA
20:00 12.6 -7.7 24 0.0 LegendMM LegendMM   100.57     LegendNANA
21:00 11.7 -6.9 27 0.0 LegendMM LegendMM   100.65     LegendNANA
22:00 11.5 -7.8 25 0.0 LegendMM LegendMM   100.70     LegendNANA
23:00 12.7 -6.6 26 0.0 LegendMM LegendMM   100.68     LegendNANA

Notes on Data Quality.

Legend

  • E = Estimated
  • M = Missing
  • NA = Not Available*
  • [empty] = Indicates an unobserved value
Date modified: